Satellite: ANTELSAT Catalog number: 40034 Epoch time: 14275.71436560 Element set: 310 Inclination: 097.9683 deg RA of node: 168.2045 deg Eccentricity: 0.0060271 Arg of perigee: 223.1980 deg Mean anomaly: 136.4494 deg Mean motion: 14.71453945 rev/day Decay rate: 2.442e-05 rev/day^2 Epoch rev: 1541 Checksum: 280
/EX SB KEPS @ AMSAT $ORB14275.W Orbital Elements 14275.WEATHER
HR AMSAT ORBITAL ELEMENTS FOR WEATHER SATELLITES FROM WA5QGD FORT WORTH,TX October 2, 2014 BID: ORB14275.W TO ALL RADIO AMATEURS BT
Satellite: MET-2/21 Catalog number: 22782 Epoch time: 14275.59225036 Element set: 188 Inclination: 082.5463 deg RA of node: 088.0841 deg Eccentricity: 0.0021338 Arg of perigee: 325.9838 deg Mean anomaly: 099.0737 deg Mean motion: 13.83745139 rev/day Decay rate: 4.8e-07 rev/day^2 Epoch rev: 6497 Checksum: 334
Satellite: OKEAN-4 Catalog number: 23317 Epoch time: 14275.51046421 Element set: 670 Inclination: 082.5385 deg RA of node: 327.2999 deg Eccentricity: 0.0022119 Arg of perigee: 104.3633 deg Mean anomaly: 321.9346 deg Mean motion: 14.85756219 rev/day Decay rate: 1.398e-05 rev/day^2 Epoch rev: 7904 Checksum: 308
Satellite: NOAA-14 Catalog number: 23455 Epoch time: 14275.43207706 Element set: 930 Inclination: 098.7735 deg RA of node: 356.9375 deg Eccentricity: 0.0010541 Arg of perigee: 095.8421 deg Mean anomaly: 035.2021 deg Mean motion: 14.13989001 rev/day Decay rate: 7.2e-07 rev/day^2 Epoch rev: 1910 Checksum: 281
Satellite: NOAA-15 Catalog number: 25338 Epoch time: 14275.45021744 Element set: 367 Inclination: 098.7602 deg RA of node: 269.1420 deg Eccentricity: 0.0010592 Arg of perigee: 190.8323 deg Mean anomaly: 284.4135 deg Mean motion: 14.25476800 rev/day Decay rate: 2.29e-06 rev/day^2 Epoch rev: 85212 Checksum: 293
Satellite: RESURS Catalog number: 25394 Epoch time: 14275.83867535 Element set: 775 Inclination: 098.4273 deg RA of node: 235.7473 deg Eccentricity: 0.0000668 Arg of perigee: 005.8748 deg Mean anomaly: 050.7638 deg Mean motion: 14.24402129 rev/day Decay rate: 4.9e-07 rev/day^2 Epoch rev: 84364 Checksum: 328
Satellite: FENGYUN1 Catalog number: 25730 Epoch time: 14275.82935411 Element set: 264 Inclination: 098.9189 deg RA of node: 236.3077 deg Eccentricity: 0.0022000 Arg of perigee: 160.1529 deg Mean anomaly: 255.9768 deg Mean motion: 14.12171010 rev/day Decay rate: 2.545e-05 rev/day^2 Epoch rev: 79271 Checksum: 292
Satellite: OKEAN-0 Catalog number: 25860 Epoch time: 14275.80660986 Element set: 379 Inclination: 098.0571 deg RA of node: 239.1182 deg Eccentricity: 0.0001950 Arg of perigee: 094.7597 deg Mean anomaly: 323.7755 deg Mean motion: 14.75427020 rev/day Decay rate: 1.189e-05 rev/day^2 Epoch rev: 81802 Checksum: 325
Satellite: NOAA-16 Catalog number: 26536 Epoch time: 14275.42786272 Element set: 866 Inclination: 098.9792 deg RA of node: 336.1955 deg Eccentricity: 0.0009875 Arg of perigee: 237.2332 deg Mean anomaly: 122.7889 deg Mean motion: 14.13039182 rev/day Decay rate: 1.61e-06 rev/day^2 Epoch rev: 72325 Checksum: 339
Satellite: NOAA-17 Catalog number: 27453 Epoch time: 14275.43011323 Element set: 756 Inclination: 098.3208 deg RA of node: 269.5302 deg Eccentricity: 0.0011239 Arg of perigee: 213.9325 deg Mean anomaly: 146.1137 deg Mean motion: 14.24784483 rev/day Decay rate: 2.13e-06 rev/day^2 Epoch rev: 63795 Checksum: 295
Satellite: NOAA-18 Catalog number: 28654 Epoch time: 14275.46102501 Element set: 275 Inclination: 099.1603 deg RA of node: 257.1767 deg Eccentricity: 0.0013621 Arg of perigee: 326.5934 deg Mean anomaly: 143.2743 deg Mean motion: 14.12070305 rev/day Decay rate: 2.16e-06 rev/day^2 Epoch rev: 48270 Checksum: 281
Satellite: NOAA-19 Catalog number: 33591 Epoch time: 14275.51455721 Element set: 411 Inclination: 098.9550 deg RA of node: 220.2786 deg Eccentricity: 0.0014183 Arg of perigee: 172.7450 deg Mean anomaly: 302.8761 deg Mean motion: 14.11773353 rev/day Decay rate: 1.21e-06 rev/day^2 Epoch rev: 29113 Checksum: 284
/EX SB KEPS @ AMSAT $ORB14275.M Orbital Elements 14275.MISC
HR AMSAT ORBITAL ELEMENTS FOR MANNED AND MISCELLANEOUS SATELLITES FROM WA5QGD FORT WORTH,TX October 2, 2014 BID: ORB14275.M TO ALL RADIO AMATEURS BT
Satellite: HUBBLE Catalog number: 20580 Epoch time: 14274.65593259 Element set: 126 Inclination: 028.4708 deg RA of node: 057.0573 deg Eccentricity: 0.0003092 Arg of perigee: 351.9245 deg Mean anomaly: 125.6004 deg Mean motion: 15.05829872 rev/day Decay rate: 3.766e-05 rev/day^2 Epoch rev: 14078 Checksum: 300
Satellite: ISS Catalog number: 25544 Epoch time: 14275.87220488 Element set: 188 Inclination: 051.6459 deg RA of node: 285.8227 deg Eccentricity: 0.0002253 Arg of perigee: 135.6034 deg Mean anomaly: 287.5785 deg Mean motion: 15.50825866 rev/day Decay rate: 1.4712e-04 rev/day^2 Epoch rev: 90803 Checksum: 323
Satellite: CO-58 Catalog number: 28895 Epoch time: 14275.80127473 Element set: 888 Inclination: 097.8272 deg RA of node: 112.0592 deg Eccentricity: 0.0017943 Arg of perigee: 035.1621 deg Mean anomaly: 325.0761 deg Mean motion: 14.62059934 rev/day Decay rate: 1.170e-05 rev/day^2 Epoch rev: 47597 Checksum: 334
Satellite: FALCON Catalog number: 30776 Epoch time: 14275.13890337 Element set: 973 Inclination: 035.4282 deg RA of node: 170.9805 deg Eccentricity: 0.0002051 Arg of perigee: 219.2830 deg Mean anomaly: 265.7190 deg Mean motion: 15.17703417 rev/day Decay rate: 1.1030e-04 rev/day^2 Epoch rev: 41698 Checksum: 288
Satellite: MAST Catalog number: 31126 Epoch time: 14274.90696646 Element set: 168 Inclination: 097.9269 deg RA of node: 250.3085 deg Eccentricity: 0.0092203 Arg of perigee: 022.4483 deg Mean anomaly: 030.2794 deg Mean motion: 14.55428297 rev/day Decay rate: 1.555e-05 rev/day^2 Epoch rev: 39591 Checksum: 319
Satellite: CAPE1 Catalog number: 31130 Epoch time: 14275.66410786 Element set: 174 Inclination: 097.9473 deg RA of node: 247.8178 deg Eccentricity: 0.0099554 Arg of perigee: 038.4673 deg Mean anomaly: 322.3567 deg Mean motion: 14.54638991 rev/day Decay rate: 2.136e-05 rev/day^2 Epoch rev: 39543 Checksum: 339
Satellite: COMPASS Catalog number: 32787 Epoch time: 14275.74912611 Element set: 62 Inclination: 097.6909 deg RA of node: 326.1647 deg Eccentricity: 0.0013893 Arg of perigee: 179.4516 deg Mean anomaly: 180.6718 deg Mean motion: 14.88445078 rev/day Decay rate: 4.786e-05 rev/day^2 Epoch rev: 34818 Checksum: 348
Satellite: AAUSAT2 Catalog number: 32788 Epoch time: 14275.76760662 Element set: 50 Inclination: 097.6920 deg RA of node: 327.3040 deg Eccentricity: 0.0013364 Arg of perigee: 177.1702 deg Mean anomaly: 182.9594 deg Mean motion: 14.89215262 rev/day Decay rate: 4.404e-05 rev/day^2 Epoch rev: 34825 Checksum: 308
Satellite: DO-64 Catalog number: 32789 Epoch time: 14275.46459059 Element set: 93 Inclination: 097.7109 deg RA of node: 334.5828 deg Eccentricity: 0.0012686 Arg of perigee: 162.0753 deg Mean anomaly: 322.9138 deg Mean motion: 14.94538485 rev/day Decay rate: 1.0612e-04 rev/day^2 Epoch rev: 34851 Checksum: 343
Satellite: CO-66 Catalog number: 32791 Epoch time: 14275.40201330 Element set: 44 Inclination: 097.6903 deg RA of node: 324.3624 deg Eccentricity: 0.0014424 Arg of perigee: 185.2468 deg Mean anomaly: 174.8600 deg Mean motion: 14.86992001 rev/day Decay rate: 3.890e-05 rev/day^2 Epoch rev: 34798 Checksum: 307
Satellite: RS-30 Catalog number: 32953 Epoch time: 14275.68014644 Element set: 352 Inclination: 082.5073 deg RA of node: 134.3910 deg Eccentricity: 0.0017934 Arg of perigee: 285.1796 deg Mean anomaly: 074.7306 deg Mean motion: 12.43050845 rev/day Decay rate: 1.0e-07 rev/day^2 Epoch rev: 28861 Checksum: 291
Satellite: METEOR-M Catalog number: 35865 Epoch time: 14275.81657941 Element set: 955 Inclination: 098.5390 deg RA of node: 319.9041 deg Eccentricity: 0.0002951 Arg of perigee: 128.8754 deg Mean anomaly: 231.2682 deg Mean motion: 14.21932362 rev/day Decay rate: 1.04e-06 rev/day^2 Epoch rev: 26163 Checksum: 309
Satellite: RS-38 Catalog number: 35869 Epoch time: 14275.71052013 Element set: 861 Inclination: 098.5311 deg RA of node: 319.5539 deg Eccentricity: 0.0005605 Arg of perigee: 136.2657 deg Mean anomaly: 331.2953 deg Mean motion: 14.22229832 rev/day Decay rate: 8.0e-07 rev/day^2 Epoch rev: 26165 Checksum: 303
Satellite: JUGNU Catalog number: 37839 Epoch time: 14275.36039448 Element set: 708 Inclination: 019.9620 deg RA of node: 325.3776 deg Eccentricity: 0.0019222 Arg of perigee: 084.6326 deg Mean anomaly: 021.8108 deg Mean motion: 14.12343276 rev/day Decay rate: 5.06e-06 rev/day^2 Epoch rev: 15372 Checksum: 297
Satellite: SRMSAT Catalog number: 37841 Epoch time: 14274.72415459 Element set: 710 Inclination: 019.9728 deg RA of node: 350.6963 deg Eccentricity: 0.0012162 Arg of perigee: 013.7916 deg Mean anomaly: 072.9260 deg Mean motion: 14.10378758 rev/day Decay rate: 4.53e-06 rev/day^2 Epoch rev: 15341 Checksum: 298
Satellite: RAX-2 Catalog number: 37853 Epoch time: 14275.79879008 Element set: 924 Inclination: 101.7048 deg RA of node: 356.8235 deg Eccentricity: 0.0212532 Arg of perigee: 105.2575 deg Mean anomaly: 009.8795 deg Mean motion: 14.90756107 rev/day Decay rate: 1.2109e-04 rev/day^2 Epoch rev: 15868 Checksum: 330
Satellite: AUBIESAT Catalog number: 37854 Epoch time: 14275.82045692 Element set: 923 Inclination: 101.7089 deg RA of node: 359.1051 deg Eccentricity: 0.0209694 Arg of perigee: 101.6990 deg Mean anomaly: 015.1858 deg Mean motion: 14.92252131 rev/day Decay rate: 1.2339e-04 rev/day^2 Epoch rev: 15875 Checksum: 311
Satellite: HRBE Catalog number: 37855 Epoch time: 14275.77308567 Element set: 940 Inclination: 101.7086 deg RA of node: 358.2252 deg Eccentricity: 0.0212253 Arg of perigee: 103.5231 deg Mean anomaly: 258.9716 deg Mean motion: 14.91461230 rev/day Decay rate: 1.2351e-04 rev/day^2 Epoch rev: 15870 Checksum: 292
